Location: Sedan
(39.2354°N, 78.5718°W)
Time: 21:54:51
(UTC+00:00)

WORLDVIEW 2 - Pass Details

Date: 15 August 2022
Orbit: 764 x 767 km, 98.5° (Epoch: 05 October)

Event Time Altitude Azimuth Distance (km) Brightness Sun altitude
Exits shadow 03:56:43 33° 296° (WNW) 1,270 6.4 -33.4°
Drops below altitude 10° 04:00:09 10° 331° (NNW) 2,314 8.3 -33.6°
Sets 04:02:37 0° 339° (NNW) 3,245 9.3 -33.8°
